EW6511 Weather Reports


Display with metric or nautical units.
time (UTC)temp
F
wind
direction
speed
MPH
gust
MPH
rain 1hr
in
rain 24hr
in
rain mn
in
humidity
%
barometer
mb
20260902121858 75 326 4.0 9.0 0.00 0.00 0.00 39 1024.0
20260902120853 74 259 5.0 9.0 0.00 0.00 0.00 38 1024.1
20260902115854 74 226 5.0 9.0 0.00 0.00 0.00 42 1024.2
20260902114854 73 251 7.0 11.0 0.00 0.00 0.00 39 1024.2
20260902113852 73 224 5.0 9.0 0.00 0.00 0.00 41 1024.2
20260902111852 72 232 5.0 8.0 0.00 0.00 0.00 42 1024.5
20260902110852 72 233 7.0 11.0 0.00 0.00 0.00 44 1024.6
20260902105853 71 306 6.0 11.0 0.00 0.00 0.00 45 1024.6
20260902103854 70 261 5.0 9.0 0.00 0.00 0.00 47 1024.9
20260902102853 70 267 3.0 9.0 0.00 0.00 0.00 50 1025.1
20260902101853 69 274 4.0 8.0 0.00 0.00 0.00 53 1025.0
20260902100854 69 292 4.0 9.0 0.00 0.00 0.00 55 1025.1
20260902094852 67 309 4.0 9.0 0.00 0.00 0.00 55 1025.2
20260902093854 67 289 5.0 8.0 0.00 0.00 0.00 57 1025.3
20260902092853 66 286 3.0 9.0 0.00 0.00 0.00 53 1025.3
20260902091851 66 248 3.0 8.0 0.00 0.00 0.00 58 1025.3
20260902090850 65 220 3.0 6.0 0.00 0.00 0.00 58 1025.2
20260902085852 65 263 4.0 8.0 0.00 0.00 0.00 57 1025.3
20260902084852 65 240 4.0 8.0 0.00 0.00 0.00 58 1025.2
20260902082846 64 246 3.0 7.0 0.00 0.00 0.00 59 1024.9
20260902080848 64 290 4.0 7.0 0.00 0.00 0.00 60 1024.8
20260902075843 64 274 4.0 8.0 0.00 0.00 0.00 59 1024.7
20260902074844 64 255 2.0 5.0 0.00 0.00 0.00 58 1024.5
20260902073843 64 105 1.0 3.0 0.00 0.00 0.00 58 1024.5
20260902071843 64 103 0.0 0.0 0.00 0.00 0.00 61 1024.4
20260902070838 62 103 1.0 2.0 0.00 0.00 0.00 62 1024.4
20260902063836 57 167 0.0 3.0 0.00 0.00 0.00 69 1024.4
20260902062838 56 167 0.0 0.0 0.00 0.00 0.00 69 1024.4
20260902061837 55 167 0.0 1.0 0.00 0.00 0.00 69 1024.5
20260902055838 54 154 1.0 5.0 0.00 0.00 0.00 70 1024.6
20260902053831 54 146 0.0 0.0 0.00 0.00 0.00 70 1024.5
20260902052831 53 146 0.0 3.0 0.00 0.00 0.00 70 1024.4
20260902051831 53 166 2.0 4.0 0.00 0.00 0.00 70 1024.1
20260902050830 53 167 0.0 0.0 0.00 0.00 0.00 70 1024.1
20260902045832 53 153 0.0 0.0 0.00 0.00 0.00 70 1024.0
20260902044831 53 153 0.0 0.0 0.00 0.00 0.00 70 1024.0
20260902043832 53 153 0.0 0.0 0.00 0.00 0.00 69 1024.0
20260902042830 53 153 0.0 0.0 0.00 0.00 0.00 69 1023.9
20260902041832 53 153 0.0 0.0 0.00 0.00 0.00 69 1023.9
20260902040825 53 153 1.0 3.0 0.00 0.00 0.00 70 1023.9
20260902035825 53 153 1.0 2.0 0.00 0.00 0.00 70 1023.9
20260902034825 53 153 1.0 3.0 0.00 0.00 0.00 69 1024.1
20260902033825 54 153 2.0 3.0 0.00 0.00 0.00 69 1024.1
20260902030824 54 153 0.0 2.0 0.00 0.00 0.00 70 1024.0
20260902025825 54 153 0.0 2.0 0.00 0.00 0.00 70 1024.0
20260902024825 54 153 0.0 0.0 0.00 0.00 0.00 70 1024.0
20260902023818 54 153 0.0 0.0 0.00 0.00 0.00 69 1023.9
20260902022821 55 153 2.0 3.0 0.00 0.00 0.00 69 1024.0
20260902021822 55 153 1.0 2.0 0.00 0.00 0.00 68 1023.9
20260902020817 55 153 0.0 2.0 0.00 0.00 0.00 68 1023.9
20260902015817 56 153 2.0 3.0 0.00 0.00 0.00 68 1023.7
20260902014815 56 153 1.0 2.0 0.00 0.00 0.00 69 1023.9
20260902013813 55 153 0.0 0.0 0.00 0.00 0.00 69 1023.7
20260902012812 56 153 2.0 5.0 0.00 0.00 0.00 69 1024.0
20260902011812 56 153 3.0 5.0 0.00 0.00 0.00 69 1024.0
20260902010811 56 195 2.0 3.0 0.00 0.00 0.00 68 1024.1
20260902005812 56 195 3.0 4.0 0.00 0.00 0.00 68 1024.0
20260902004814 56 209 2.0 3.0 0.00 0.00 0.00 68 1024.2
20260902003813 56 209 1.0 2.0 0.00 0.00 0.00 68 1024.3
20260902002812 57 209 0.0 1.0 0.00 0.00 0.00 67 1024.2
20260902001813 57 209 0.0 0.0 0.00 0.00 0.00 67 1024.2
20260902000812 57 209 0.0 0.0 0.00 0.00 0.00 66 1024.3
20260901234813 58 209 2.0 4.0 0.00 0.00 0.00 65 1024.1
20260901233809 58 209 4.0 5.0 0.00 0.00 0.00 65 1024.0
20260901232807 58 203 4.0 5.0 0.00 0.00 0.00 65 1024.1
20260901231808 58 205 2.0 4.0 0.00 0.00 0.00 65 1024.1
20260901230809 58 131 2.0 5.0 0.00 0.00 0.00 64 1024.0
20260901225807 59 128 0.0 0.0 0.00 0.00 0.00 64 1023.9
20260901224807 59 128 0.0 0.0 0.00 0.00 0.00 64 1023.9
20260901223809 59 128 0.0 0.0 0.00 0.00 0.00 63 1024.0
20260901222807 59 128 0.0 1.0 0.00 0.00 0.00 63 1023.7
20260901220806 59 128 1.0 3.0 0.00 0.00 0.00 64 1024.0
20260901215807 58 128 3.0 5.0 0.00 0.00 0.00 64 1024.1
20260901213803 59 132 0.0 3.0 0.00 0.00 0.00 63 1024.0
20260901211805 59 132 0.0 0.0 0.00 0.00 0.00 62 1024.1
20260901210803 60 132 0.0 2.0 0.00 0.00 0.00 62 1024.2
20260901205805 60 132 0.0 1.0 0.00 0.00 0.00 62 1024.3
20260901203803 60 132 2.0 3.0 0.00 0.00 0.00 62 1024.3
20260901202802 61 132 1.0 3.0 0.00 0.00 0.00 60 1024.3
20260901201802 61 132 1.0 3.0 0.00 0.00 0.00 59 1024.4
20260901200759 61 132 0.0 0.0 0.00 0.00 0.00 59 1024.3
20260901195801 62 132 0.0 0.0 0.00 0.00 0.00 60 1024.2
20260901194800 62 132 0.0 0.0 0.00 0.00 0.00 59 1024.2
20260901192801 63 132 0.0 0.0 0.00 0.00 0.00 59 1024.0
20260901191800 63 132 0.0 0.0 0.00 0.00 0.00 59 1023.9
20260901190759 64 132 0.0 0.0 0.00 0.00 0.00 57 1023.9
20260901185800 64 132 0.0 1.0 0.00 0.00 0.00 56 1023.9
20260901184755 65 132 1.0 3.0 0.00 0.00 0.00 56 1023.7
20260901183753 66 140 1.0 3.0 0.00 0.00 0.00 53 1023.7
20260901181755 67 182 0.0 0.0 0.00 0.00 0.00 52 1023.5
20260901180754 68 182 0.0 0.0 0.00 0.00 0.00 48 1023.5
20260901174754 70 182 0.0 1.0 0.00 0.00 0.00 46 1023.5
20260901172756 71 0 0.0 1.0 0.00 0.00 0.00 43 1023.4
20260901171751 72 355 1.0 3.0 0.00 0.00 0.00 42 1023.3
20260901170752 73 247 1.0 3.0 0.00 0.00 0.00 41 1023.4
20260901165753 74 246 0.0 2.0 0.00 0.00 0.00 40 1023.4
20260901164751 74 246 0.0 3.0 0.00 0.00 0.00 35 1023.4
20260901161753 74 218 2.0 5.0 0.00 0.00 0.00 34 1023.5
20260901160751 74 247 3.0 7.0 0.00 0.00 0.00 35 1023.6
20260901155749 74 302 4.0 9.0 0.00 0.00 0.00 36 1023.5
20260901154748 74 249 3.0 9.0 0.00 0.00 0.00 34 1023.5
20260901153749 74 277 3.0 10.0 0.00 0.00 0.00 36 1023.6
20260901151748 74 321 4.0 8.0 0.00 0.00 0.00 35 1023.6
20260901145746 73 306 5.0 10.0 0.00 0.00 0.00 36 1023.5
20260901144748 74 254 4.0 9.0 0.00 0.00 0.00 38 1023.6
20260901143749 73 280 7.0 12.0 0.00 0.00 0.00 37 1023.5
20260901142743 74 279 3.0 9.0 0.00 0.00 0.00 35 1023.5
20260901141742 74 244 4.0 10.0 0.00 0.00 0.00 38 1023.5
20260901140739 74 258 2.0 9.0 0.00 0.00 0.00 35 1023.6
20260901135738 73 276 3.0 9.0 0.00 0.00 0.00 37 1023.6
20260901133733 73 333 8.0 12.0 0.00 0.00 0.00 40 1023.7
20260901131729 73 290 1.0 3.0 0.00 0.00 0.00 39 1024.0
20260901130729 72 264 4.0 9.0 0.00 0.00 0.00 43 1024.0
20260901125729 72 269 7.0 12.0 0.00 0.00 0.00 40 1024.1
20260901124728 72 288 8.0 15.0 0.00 0.00 0.00 44 1024.3
20260901123730 72 355 8.0 12.0 0.00 0.00 0.00 40 1024.4
20260901122729 72 281 4.0 10.0 0.00 0.00 0.00 42 1024.3